| time (UTC) | temp F | wind direction | speed MPH | gust MPH | rain 1hr in | rain 24hr in | rain mn in | humidity % | barometer mb |
| 20260906101317 | 68 | 43 | 2.0 | 6.0 | 0.00 | 0.00 | 0.00 | 86 | 1017.3 |
| 20260906100813 | 68 | 72 | 3.0 | 6.0 | 0.00 | 0.00 | 0.00 | 86 | 1017.4 |
| 20260906100311 | 68 | 62 | 4.0 | 6.0 | 0.00 | 0.00 | 0.00 | 86 | 1017.1 |
| 20260906095807 | 69 | 62 | 4.0 | 8.0 | 0.00 | 0.00 | 0.00 | 86 | 1017.0 |
| 20260906095305 | 69 | 77 | 4.0 | 8.0 | 0.00 | 0.00 | 0.00 | 85 | 1016.9 |
| 20260906094801 | 69 | 39 | 5.0 | 7.0 | 0.00 | 0.00 | 0.00 | 86 | 1017.0 |
| 20260906094256 | 69 | 82 | 3.0 | 4.0 | 0.00 | 0.00 | 0.00 | 86 | 1017.0 |
| 20260906093753 | 69 | 22 | 4.0 | 7.0 | 0.00 | 0.00 | 0.00 | 86 | 1017.1 |
| 20260906093248 | 70 | 28 | 6.0 | 8.0 | 0.00 | 0.00 | 0.00 | 87 | 1017.2 |
| 20260906092744 | 70 | 59 | 6.0 | 8.0 | 0.00 | 0.00 | 0.00 | 88 | 1017.1 |
| 20260906092243 | 70 | 99 | 2.0 | 9.0 | 0.00 | 0.00 | 0.00 | 88 | 1016.9 |
| 20260906091739 | 70 | 46 | 4.0 | 10.0 | 0.00 | 0.00 | 0.00 | 90 | 1016.9 |
| 20260906091235 | 71 | 36 | 6.0 | 10.0 | 0.00 | 0.00 | 0.00 | 90 | 1016.8 |
| 20260906090731 | 71 | 55 | 4.0 | 6.0 | 0.00 | 0.00 | 0.00 | 93 | 1016.9 |
| 20260906090231 | 71 | 59 | 2.0 | 9.0 | 0.00 | 0.00 | 0.00 | 92 | 1017.0 |
| 20260906085730 | 71 | 89 | 4.0 | 14.0 | 0.00 | 0.00 | 0.00 | 92 | 1016.8 |
| 20260906085229 | 71 | 67 | 4.0 | 6.0 | 0.00 | 0.00 | 0.00 | 93 | 1016.9 |
| 20260906084724 | 71 | 60 | 4.0 | 7.0 | 0.00 | 0.00 | 0.00 | 94 | 1016.7 |
| 20260906084219 | 71 | 82 | 2.0 | 6.0 | 0.00 | 0.00 | 0.00 | 94 | 1016.5 |
| 20260906083714 | 71 | 100 | 1.0 | 7.0 | 0.00 | 0.00 | 0.00 | 94 | 1016.5 |
| 20260906083209 | 71 | 64 | 3.0 | 6.0 | 0.00 | 0.00 | 0.00 | 94 | 1016.5 |
| 20260906082704 | 71 | 67 | 5.0 | 9.0 | 0.00 | 0.00 | 0.00 | 94 | 1016.5 |
| 20260906082159 | 71 | 94 | 2.0 | 6.0 | 0.00 | 0.00 | 0.00 | 95 | 1016.5 |
| 20260906081655 | 71 | 13 | 5.0 | 8.0 | 0.00 | 0.00 | 0.00 | 95 | 1016.5 |
| 20260906081149 | 71 | 8 | 5.0 | 6.0 | 0.00 | 0.00 | 0.00 | 95 | 1016.5 |
| 20260906080646 | 71 | 39 | 5.0 | 6.0 | 0.00 | 0.00 | 0.00 | 95 | 1016.5 |
| 20260906080142 | 71 | 58 | 6.0 | 8.0 | 0.00 | 0.00 | 0.00 | 95 | 1016.6 |
| 20260906075641 | 71 | 55 | 3.0 | 4.0 | 0.00 | 0.00 | 0.00 | 95 | 1016.5 |
| 20260906075136 | 71 | 125 | 2.0 | 3.0 | 0.00 | 0.00 | 0.00 | 96 | 1016.4 |
| 20260906074632 | 71 | 341 | 2.0 | 3.0 | 0.00 | 0.00 | 0.00 | 96 | 1016.3 |
| 20260906074130 | 71 | 24 | 2.0 | 6.0 | 0.00 | 0.00 | 0.00 | 96 | 1016.2 |
| 20260906073625 | 70 | 91 | 2.0 | 3.0 | 0.00 | 0.00 | 0.00 | 96 | 1016.3 |
| 20260906073121 | 70 | 347 | 2.0 | 3.0 | 0.00 | 0.00 | 0.00 | 96 | 1016.5 |
| 20260906072616 | 70 | 344 | 3.0 | 3.0 | 0.00 | 0.00 | 0.00 | 96 | 1016.4 |
| 20260906072113 | 70 | 351 | 2.0 | 3.0 | 0.00 | 0.00 | 0.00 | 96 | 1016.5 |
| 20260906071609 | 70 | 329 | 1.0 | 3.0 | 0.00 | 0.00 | 0.00 | 96 | 1016.4 |
| 20260906071109 | 70 | 250 | 1.0 | 3.0 | 0.00 | 0.00 | 0.00 | 96 | 1016.5 |
| 20260906070606 | 70 | 343 | 2.0 | 3.0 | 0.00 | 0.00 | 0.00 | 96 | 1016.4 |
| 20260906070100 | 70 | 232 | 1.0 | 3.0 | 0.00 | 0.00 | 0.00 | 96 | 1016.4 |
| 20260906065600 | 70 | 94 | 1.0 | 3.0 | 0.00 | 0.00 | 0.00 | 96 | 1016.5 |
| 20260906065056 | 70 | 333 | 2.0 | 3.0 | 0.00 | 0.00 | 0.00 | 96 | 1016.5 |
| 20260906064551 | 70 | 107 | 0.0 | 2.0 | 0.00 | 0.00 | 0.00 | 96 | 1016.6 |
| 20260906064046 | 70 | 328 | 2.0 | 2.0 | 0.00 | 0.00 | 0.00 | 96 | 1016.6 |
| 20260906063541 | 70 | 259 | 1.0 | 3.0 | 0.00 | 0.00 | 0.00 | 95 | 1016.7 |
| 20260906063037 | 71 | 347 | 3.0 | 3.0 | 0.00 | 0.00 | 0.00 | 95 | 1016.3 |
| 20260906062532 | 71 | 126 | 1.0 | 2.0 | 0.00 | 0.00 | 0.00 | 95 | 1016.5 |
| 20260906062026 | 71 | 110 | 1.0 | 2.0 | 0.00 | 0.00 | 0.00 | 95 | 1016.5 |
| 20260906061523 | 71 | 20 | 3.0 | 3.0 | 0.00 | 0.00 | 0.00 | 95 | 1016.6 |
| 20260906061022 | 71 | 339 | 2.0 | 3.0 | 0.00 | 0.00 | 0.00 | 96 | 1016.4 |
| 20260906060519 | 71 | 355 | 1.0 | 2.0 | 0.00 | 0.00 | 0.00 | 95 | 1016.5 |
| 20260906060016 | 71 | 332 | 2.0 | 3.0 | 0.00 | 0.00 | 0.00 | 95 | 1016.5 |
| 20260906055512 | 71 | 358 | 2.0 | 3.0 | 0.00 | 0.00 | 0.00 | 95 | 1016.4 |
| 20260906055007 | 71 | 213 | 0.0 | 1.0 | 0.00 | 0.00 | 0.00 | 95 | 1016.1 |
| 20260906054507 | 71 | 259 | 2.0 | 4.0 | 0.00 | 0.00 | 0.00 | 95 | 1016.3 |
| 20260906054002 | 71 | 283 | 2.0 | 3.0 | 0.00 | 0.00 | 0.00 | 95 | 1016.3 |
| 20260906053458 | 71 | 279 | 2.0 | 2.0 | 0.00 | 0.00 | 0.00 | 94 | 1016.3 |
| 20260906052954 | 71 | 196 | 0.0 | 2.0 | 0.00 | 0.00 | 0.00 | 94 | 1016.3 |
| 20260906052450 | 72 | 2 | 2.0 | 3.0 | 0.00 | 0.00 | 0.00 | 94 | 1016.4 |
| 20260906051946 | 71 | 80 | 4.0 | 4.0 | 0.00 | 0.00 | 0.00 | 94 | 1016.3 |
| 20260906051441 | 71 | 348 | 4.0 | 4.0 | 0.00 | 0.00 | 0.00 | 94 | 1016.3 |
| 20260906050937 | 71 | 249 | 1.0 | 2.0 | 0.00 | 0.00 | 0.00 | 94 | 1016.2 |
| 20260906050437 | 72 | 3 | 3.0 | 6.0 | 0.00 | 0.00 | 0.00 | 94 | 1016.3 |
| 20260906045936 | 72 | 249 | 1.0 | 2.0 | 0.00 | 0.00 | 0.00 | 94 | 1016.1 |
| 20260906045435 | 72 | 10 | 2.0 | 3.0 | 0.00 | 0.00 | 0.00 | 93 | 1016.2 |
| 20260906044932 | 72 | 359 | 4.0 | 4.0 | 0.00 | 0.00 | 0.00 | 93 | 1016.2 |
| 20260906044432 | 72 | 45 | 1.0 | 2.0 | 0.00 | 0.00 | 0.00 | 93 | 1016.0 |
| 20260906043927 | 72 | 18 | 3.0 | 4.0 | 0.00 | 0.00 | 0.00 | 93 | 1016.1 |
| 20260906043423 | 72 | 354 | 4.0 | 6.0 | 0.00 | 0.00 | 0.00 | 93 | 1016.1 |
| 20260906042918 | 72 | 5 | 2.0 | 3.0 | 0.00 | 0.00 | 0.00 | 93 | 1015.9 |
| 20260906042417 | 72 | 249 | 1.0 | 3.0 | 0.00 | 0.00 | 0.00 | 93 | 1016.0 |
| 20260906041912 | 72 | 323 | 2.0 | 6.0 | 0.00 | 0.00 | 0.00 | 93 | 1015.9 |
| 20260906041409 | 72 | 353 | 3.0 | 6.0 | 0.00 | 0.00 | 0.00 | 92 | 1016.1 |
| 20260906040908 | 72 | 341 | 3.0 | 7.0 | 0.00 | 0.00 | 0.00 | 92 | 1015.8 |
| 20260906040403 | 72 | 139 | 1.0 | 3.0 | 0.00 | 0.00 | 0.00 | 92 | 1015.9 |
| 20260906035859 | 72 | 9 | 2.0 | 6.0 | 0.00 | 0.00 | 0.00 | 92 | 1016.0 |
| 20260906035355 | 72 | 47 | 2.0 | 6.0 | 0.00 | 0.00 | 0.00 | 92 | 1016.0 |
| 20260906034850 | 73 | 51 | 1.0 | 4.0 | 0.00 | 0.00 | 0.00 | 92 | 1016.1 |
| 20260906034349 | 73 | 334 | 3.0 | 6.0 | 0.00 | 0.00 | 0.00 | 91 | 1016.0 |
| 20260906033846 | 73 | 204 | 2.0 | 7.0 | 0.00 | 0.00 | 0.00 | 91 | 1015.8 |
| 20260906033344 | 73 | 334 | 5.0 | 7.0 | 0.00 | 0.00 | 0.00 | 91 | 1015.9 |
| 20260906032841 | 73 | 8 | 2.0 | 4.0 | 0.00 | 0.00 | 0.00 | 91 | 1015.7 |
| 20260906032337 | 73 | 333 | 4.0 | 7.0 | 0.00 | 0.00 | 0.00 | 90 | 1016.0 |
| 20260906031832 | 74 | 49 | 5.0 | 7.0 | 0.00 | 0.00 | 0.00 | 90 | 1016.0 |
| 20260906031327 | 74 | 66 | 2.0 | 4.0 | 0.00 | 0.00 | 0.00 | 89 | 1015.8 |
| 20260906030827 | 74 | 11 | 3.0 | 7.0 | 0.00 | 0.00 | 0.00 | 90 | 1015.9 |
| 20260906030323 | 74 | 283 | 2.0 | 6.0 | 0.00 | 0.00 | 0.00 | 89 | 1015.9 |
| 20260906025823 | 74 | 358 | 2.0 | 6.0 | 0.00 | 0.00 | 0.00 | 89 | 1015.9 |
| 20260906025317 | 75 | 63 | 2.0 | 7.0 | 0.00 | 0.00 | 0.00 | 89 | 1015.9 |
| 20260906024816 | 75 | 311 | 5.0 | 8.0 | 0.00 | 0.00 | 0.00 | 89 | 1015.9 |
| 20260906024315 | 75 | 336 | 2.0 | 6.0 | 0.00 | 0.00 | 0.00 | 89 | 1015.9 |
| 20260906023811 | 75 | 35 | 3.0 | 7.0 | 0.00 | 0.00 | 0.00 | 88 | 1015.7 |
| 20260906023306 | 75 | 9 | 4.0 | 4.0 | 0.00 | 0.00 | 0.00 | 88 | 1015.6 |
| 20260906022801 | 76 | 30 | 4.0 | 6.0 | 0.00 | 0.00 | 0.00 | 87 | 1015.8 |
| 20260906022257 | 76 | 321 | 4.0 | 6.0 | 0.00 | 0.00 | 0.00 | 87 | 1015.6 |
| 20260906021753 | 77 | 125 | 1.0 | 4.0 | 0.00 | 0.00 | 0.00 | 86 | 1015.7 |
| 20260906021251 | 77 | 358 | 6.0 | 8.0 | 0.00 | 0.00 | 0.00 | 85 | 1015.4 |
| 20260906020746 | 77 | 359 | 4.0 | 6.0 | 0.00 | 0.00 | 0.00 | 86 | 1015.2 |
| 20260906020241 | 77 | 345 | 8.0 | 9.0 | 0.00 | 0.00 | 0.00 | 86 | 1015.1 |
| 20260906015741 | 77 | 306 | 3.0 | 7.0 | 0.00 | 0.00 | 0.00 | 86 | 1015.2 |
| 20260906015240 | 78 | 2 | 4.0 | 8.0 | 0.00 | 0.00 | 0.00 | 85 | 1015.1 |
| 20260906014739 | 78 | 355 | 4.0 | 6.0 | 0.00 | 0.00 | 0.00 | 84 | 1015.0 |
| 20260906014235 | 78 | 14 | 5.0 | 7.0 | 0.00 | 0.00 | 0.00 | 83 | 1015.0 |
| 20260906013731 | 78 | 359 | 6.0 | 10.0 | 0.00 | 0.00 | 0.00 | 83 | 1015.0 |
| 20260906013231 | 78 | 343 | 2.0 | 6.0 | 0.00 | 0.00 | 0.00 | 84 | 1015.0 |
| 20260906012726 | 79 | 220 | 2.0 | 3.0 | 0.00 | 0.00 | 0.00 | 83 | 1015.1 |
| 20260906012221 | 79 | 354 | 2.0 | 8.0 | 0.00 | 0.00 | 0.00 | 83 | 1015.1 |
| 20260906011717 | 79 | 35 | 3.0 | 8.0 | 0.00 | 0.00 | 0.00 | 83 | 1014.8 |
| 20260906011211 | 80 | 43 | 5.0 | 7.0 | 0.00 | 0.00 | 0.00 | 82 | 1014.7 |
| 20260906010707 | 80 | 7 | 2.0 | 6.0 | 0.00 | 0.00 | 0.00 | 82 | 1014.5 |
| 20260906010204 | 79 | 0 | 2.0 | 4.0 | 0.00 | 0.00 | 0.00 | 83 | 1014.4 |
| 20260906005703 | 80 | 341 | 1.0 | 6.0 | 0.00 | 0.00 | 0.00 | 82 | 1014.5 |
| 20260906005202 | 80 | 350 | 3.0 | 4.0 | 0.00 | 0.00 | 0.00 | 82 | 1014.5 |
| 20260906004701 | 80 | 4 | 4.0 | 4.0 | 0.00 | 0.00 | 0.00 | 81 | 1014.3 |
| 20260906004156 | 81 | 0 | 6.0 | 6.0 | 0.00 | 0.00 | 0.00 | 81 | 1014.2 |
| 20260906003652 | 81 | 346 | 7.0 | 8.0 | 0.00 | 0.00 | 0.00 | 80 | 1014.3 |
| 20260906003148 | 81 | 11 | 4.0 | 10.0 | 0.00 | 0.00 | 0.00 | 81 | 1014.4 |
| 20260906002647 | 82 | 358 | 4.0 | 8.0 | 0.00 | 0.00 | 0.00 | 82 | 1014.3 |
| 20260906002142 | 82 | 307 | 4.0 | 8.0 | 0.00 | 0.00 | 0.00 | 81 | 1014.0 |
| 20260906001637 | 82 | 14 | 4.0 | 6.0 | 0.00 | 0.00 | 0.00 | 80 | 1014.2 |
| 20260906001137 | 83 | 25 | 5.0 | 8.0 | 0.00 | 0.00 | 0.00 | 81 | 1014.2 |
| 20260906000633 | 83 | 346 | 5.0 | 7.0 | 0.00 | 0.00 | 0.00 | 81 | 1014.1 |
| 20260906000128 | 84 | 71 | 3.0 | 7.0 | 0.00 | 0.00 | 0.00 | 79 | 1014.0 |
| 20260905235627 | 85 | 59 | 7.0 | 9.0 | 0.00 | 0.00 | 0.00 | 77 | 1014.0 |
| 20260905235123 | 85 | 345 | 3.0 | 11.0 | 0.00 | 0.00 | 0.00 | 78 | 1014.1 |
| 20260905234618 | 85 | 23 | 2.0 | 8.0 | 0.00 | 0.00 | 0.00 | 79 | 1014.0 |
| 20260905234114 | 85 | 52 | 2.0 | 4.0 | 0.00 | 0.00 | 0.00 | 80 | 1014.0 |
| 20260905233613 | 86 | 331 | 5.0 | 7.0 | 0.00 | 0.00 | 0.00 | 79 | 1014.0 |
| 20260905233108 | 86 | 8 | 6.0 | 7.0 | 0.00 | 0.00 | 0.00 | 77 | 1013.7 |
| 20260905232603 | 87 | 355 | 5.0 | 10.0 | 0.00 | 0.00 | 0.00 | 76 | 1013.7 |
| 20260905232059 | 87 | 307 | 4.0 | 7.0 | 0.00 | 0.00 | 0.00 | 75 | 1013.7 |
| 20260905231554 | 87 | 8 | 6.0 | 8.0 | 0.00 | 0.00 | 0.00 | 74 | 1013.7 |
| 20260905231050 | 88 | 341 | 3.0 | 7.0 | 0.00 | 0.00 | 0.00 | 74 | 1013.6 |
| 20260905230549 | 88 | 349 | 6.0 | 9.0 | 0.00 | 0.00 | 0.00 | 72 | 1013.6 |
| 20260905230048 | 88 | 351 | 4.0 | 8.0 | 0.00 | 0.00 | 0.00 | 74 | 1013.4 |
| 20260905225548 | 88 | 0 | 5.0 | 6.0 | 0.00 | 0.00 | 0.00 | 73 | 1013.4 |
| 20260905225043 | 88 | 344 | 5.0 | 7.0 | 0.00 | 0.00 | 0.00 | 73 | 1013.4 |
| 20260905224538 | 88 | 336 | 3.0 | 6.0 | 0.00 | 0.00 | 0.00 | 74 | 1013.2 |
| 20260905224037 | 89 | 343 | 3.0 | 6.0 | 0.00 | 0.00 | 0.00 | 73 | 1013.2 |
| 20260905223535 | 89 | 320 | 5.0 | 8.0 | 0.00 | 0.00 | 0.00 | 71 | 1013.4 |
| 20260905223031 | 90 | 334 | 4.0 | 6.0 | 0.00 | 0.00 | 0.00 | 71 | 1013.0 |
| 20260905222530 | 91 | 324 | 4.0 | 4.0 | 0.00 | 0.00 | 0.00 | 70 | 1013.4 |
| 20260905222026 | 91 | 330 | 3.0 | 4.0 | 0.00 | 0.00 | 0.00 | 70 | 1013.2 |
| 20260905221522 | 91 | 315 | 4.0 | 6.0 | 0.00 | 0.00 | 0.00 | 69 | 1013.6 |
| 20260905221018 | 91 | 327 | 4.0 | 7.0 | 0.00 | 0.00 | 0.00 | 69 | 1013.3 |
| 20260905220514 | 92 | 344 | 2.0 | 3.0 | 0.00 | 0.00 | 0.00 | 68 | 1013.0 |
| 20260905220009 | 91 | 284 | 3.0 | 3.0 | 0.00 | 0.00 | 0.00 | 69 | 1013.2 |
| 20260905215504 | 92 | 294 | 4.0 | 7.0 | 0.00 | 0.00 | 0.00 | 67 | 1013.0 |
| 20260905215000 | 91 | 255 | 2.0 | 7.0 | 0.00 | 0.00 | 0.00 | 69 | 1013.2 |
| 20260905214455 | 91 | 274 | 2.0 | 4.0 | 0.00 | 0.00 | 0.00 | 66 | 1013.1 |
| 20260905213955 | 91 | 285 | 4.0 | 6.0 | 0.00 | 0.00 | 0.00 | 65 | 1013.3 |
| 20260905213451 | 92 | 255 | 4.0 | 4.0 | 0.00 | 0.00 | 0.00 | 65 | 1013.3 |
| 20260905212946 | 93 | 243 | 2.0 | 4.0 | 0.00 | 0.00 | 0.00 | 62 | 1013.6 |
| 20260905212441 | 93 | 220 | 0.0 | 2.0 | 0.00 | 0.00 | 0.00 | 62 | 1013.3 |
| 20260905211940 | 92 | 219 | 0.0 | 3.0 | 0.00 | 0.00 | 0.00 | 63 | 1013.3 |
| 20260905211436 | 92 | 301 | 2.0 | 4.0 | 0.00 | 0.00 | 0.00 | 65 | 1013.3 |
| 20260905210932 | 92 | 274 | 1.0 | 3.0 | 0.00 | 0.00 | 0.00 | 67 | 1013.3 |
| 20260905210432 | 91 | 217 | 1.0 | 2.0 | 0.00 | 0.00 | 0.00 | 68 | 1013.6 |
| 20260905205931 | 91 | 278 | 2.0 | 4.0 | 0.00 | 0.00 | 0.00 | 65 | 1013.4 |
| 20260905205427 | 90 | 275 | 3.0 | 4.0 | 0.00 | 0.00 | 0.00 | 65 | 1013.7 |
| 20260905204925 | 90 | 274 | 2.0 | 3.0 | 0.00 | 0.00 | 0.00 | 65 | 1013.7 |
| 20260905204421 | 90 | 240 | 2.0 | 3.0 | 0.00 | 0.00 | 0.00 | 66 | 1013.6 |
| 20260905203921 | 90 | 227 | 2.0 | 3.0 | 0.00 | 0.00 | 0.00 | 63 | 1014.0 |
| 20260905203416 | 89 | 234 | 2.0 | 4.0 | 0.00 | 0.00 | 0.00 | 61 | 1013.9 |
| 20260905202912 | 89 | 242 | 1.0 | 6.0 | 0.00 | 0.00 | 0.00 | 62 | 1013.9 |
| 20260905202407 | 88 | 247 | 3.0 | 7.0 | 0.00 | 0.00 | 0.00 | 63 | 1013.9 |
| 20260905201903 | 88 | 282 | 5.0 | 6.0 | 0.00 | 0.00 | 0.00 | 57 | 1014.0 |
| 20260905201358 | 87 | 231 | 1.0 | 2.0 | 0.00 | 0.00 | 0.00 | 57 | 1014.0 |
| 20260905200857 | 86 | 257 | 3.0 | 3.0 | 0.00 | 0.00 | 0.00 | 61 | 1014.1 |
| 20260905200353 | 84 | 262 | 3.0 | 3.0 | 0.00 | 0.00 | 0.00 | 66 | 1014.1 |
| 20260905195851 | 84 | 239 | 2.0 | 4.0 | 0.00 | 0.00 | 0.00 | 65 | 1014.3 |
| 20260905195347 | 84 | 297 | 5.0 | 9.0 | 0.00 | 0.00 | 0.00 | 62 | 1014.5 |
| 20260905194842 | 85 | 280 | 4.0 | 11.0 | 0.00 | 0.00 | 0.00 | 66 | 1014.4 |
| 20260905194342 | 88 | 279 | 6.0 | 11.0 | 0.00 | 0.00 | 0.00 | 67 | 1014.7 |
| 20260905193841 | 89 | 235 | 1.0 | 2.0 | 0.00 | 0.00 | 0.00 | 73 | 1014.2 |
| 20260905193336 | 89 | 229 | 1.0 | 3.0 | 0.00 | 0.00 | 0.00 | 70 | 1014.4 |
| 20260905192832 | 90 | 321 | 2.0 | 3.0 | 0.00 | 0.00 | 0.00 | 67 | 1014.5 |
| 20260905192328 | 91 | 345 | 0.0 | 1.0 | 0.00 | 0.00 | 0.00 | 70 | 1014.1 |
| 20260905191827 | 92 | 336 | 4.0 | 4.0 | 0.00 | 0.00 | 0.00 | 68 | 1014.4 |
| 20260905191326 | 93 | 211 | 1.0 | 3.0 | 0.00 | 0.00 | 0.00 | 63 | 1014.5 |
| 20260905190825 | 92 | 242 | 1.0 | 2.0 | 0.00 | 0.00 | 0.00 | 66 | 1014.4 |
| 20260905190324 | 92 | 248 | 2.0 | 2.0 | 0.00 | 0.00 | 0.00 | 63 | 1014.6 |
| 20260905185823 | 93 | 208 | 2.0 | 2.0 | 0.00 | 0.00 | 0.00 | 63 | 1014.2 |
| 20260905185319 | 93 | 215 | 3.0 | 6.0 | 0.00 | 0.00 | 0.00 | 64 | 1014.4 |
| 20260905184818 | 92 | 186 | 0.0 | 1.0 | 0.00 | 0.00 | 0.00 | 65 | 1014.5 |
| 20260905184317 | 91 | 214 | 0.0 | 2.0 | 0.00 | 0.00 | 0.00 | 68 | 1014.9 |
| 20260905183816 | 91 | 221 | 1.0 | 6.0 | 0.00 | 0.00 | 0.00 | 64 | 1014.9 |
| 20260905183312 | 91 | 208 | 2.0 | 2.0 | 0.00 | 0.00 | 0.00 | 65 | 1014.8 |
| 20260905182812 | 92 | 216 | 0.0 | 2.0 | 0.00 | 0.00 | 0.00 | 65 | 1015.0 |
| 20260905182311 | 90 | 190 | 1.0 | 2.0 | 0.00 | 0.00 | 0.00 | 65 | 1015.1 |
| 20260905181807 | 91 | 240 | 1.0 | 3.0 | 0.00 | 0.00 | 0.00 | 65 | 1015.0 |
| 20260905181301 | 89 | 205 | 1.0 | 3.0 | 0.00 | 0.00 | 0.00 | 68 | 1015.2 |
| 20260905180800 | 90 | 263 | 2.0 | 3.0 | 0.00 | 0.00 | 0.00 | 67 | 1015.4 |
| 20260905180256 | 89 | 194 | 2.0 | 3.0 | 0.00 | 0.00 | 0.00 | 71 | 1015.3 |
| 20260905175755 | 89 | 245 | 4.0 | 4.0 | 0.00 | 0.00 | 0.00 | 72 | 1015.3 |
| 20260905175250 | 89 | 204 | 1.0 | 6.0 | 0.00 | 0.00 | 0.00 | 67 | 1015.5 |
| 20260905174745 | 89 | 201 | 1.0 | 4.0 | 0.00 | 0.00 | 0.00 | 71 | 1015.6 |
| 20260905174241 | 88 | 235 | 3.0 | 4.0 | 0.00 | 0.00 | 0.00 | 70 | 1015.6 |
| 20260905173737 | 88 | 195 | 2.0 | 2.0 | 0.00 | 0.00 | 0.00 | 75 | 1015.4 |
| 20260905173232 | 89 | 184 | 1.0 | 4.0 | 0.00 | 0.00 | 0.00 | 69 | 1015.5 |
| 20260905172727 | 88 | 191 | 1.0 | 2.0 | 0.00 | 0.00 | 0.00 | 71 | 1015.4 |
| 20260905172226 | 88 | 144 | 2.0 | 3.0 | 0.00 | 0.00 | 0.00 | 69 | 1015.7 |
| 20260905171722 | 88 | 191 | 1.0 | 3.0 | 0.00 | 0.00 | 0.00 | 71 | 1015.7 |
| 20260905171218 | 87 | 145 | 4.0 | 4.0 | 0.00 | 0.00 | 0.00 | 70 | 1015.7 |
| 20260905170715 | 87 | 169 | 3.0 | 4.0 | 0.00 | 0.00 | 0.00 | 70 | 1015.9 |
| 20260905170215 | 87 | 171 | 3.0 | 6.0 | 0.00 | 0.00 | 0.00 | 71 | 1015.9 |
| 20260905165715 | 86 | 201 | 1.0 | 4.0 | 0.00 | 0.00 | 0.00 | 72 | 1015.8 |
| 20260905165210 | 87 | 227 | 3.0 | 7.0 | 0.00 | 0.00 | 0.00 | 71 | 1016.0 |
| 20260905164705 | 86 | 169 | 2.0 | 3.0 | 0.00 | 0.00 | 0.00 | 71 | 1016.1 |
| 20260905164204 | 85 | 189 | 2.0 | 7.0 | 0.00 | 0.00 | 0.00 | 72 | 1015.9 |
| 20260905163700 | 86 | 225 | 2.0 | 3.0 | 0.00 | 0.00 | 0.00 | 71 | 1015.9 |
| 20260905163157 | 85 | 188 | 2.0 | 4.0 | 0.00 | 0.00 | 0.00 | 75 | 1015.9 |
| 20260905162653 | 84 | 189 | 4.0 | 7.0 | 0.00 | 0.00 | 0.00 | 75 | 1015.8 |
| 20260905162152 | 84 | 143 | 2.0 | 6.0 | 0.00 | 0.00 | 0.00 | 72 | 1015.8 |
| 20260905161648 | 85 | 141 | 5.0 | 6.0 | 0.00 | 0.00 | 0.00 | 70 | 1015.9 |
| 20260905161145 | 85 | 196 | 4.0 | 8.0 | 0.00 | 0.00 | 0.00 | 69 | 1016.0 |
| 20260905160644 | 85 | 223 | 3.0 | 7.0 | 0.00 | 0.00 | 0.00 | 72 | 1015.8 |
| 20260905160143 | 86 | 154 | 5.0 | 6.0 | 0.00 | 0.00 | 0.00 | 70 | 1015.7 |
| 20260905155638 | 85 | 196 | 6.0 | 7.0 | 0.00 | 0.00 | 0.00 | 70 | 1015.8 |
| 20260905155137 | 85 | 170 | 3.0 | 7.0 | 0.00 | 0.00 | 0.00 | 70 | 1016.0 |
| 20260905154631 | 85 | 143 | 5.0 | 7.0 | 0.00 | 0.00 | 0.00 | 68 | 1016.3 |
| 20260905154127 | 84 | 132 | 2.0 | 8.0 | 0.00 | 0.00 | 0.00 | 69 | 1016.3 |
| 20260905153623 | 83 | 178 | 3.0 | 8.0 | 0.00 | 0.00 | 0.00 | 70 | 1016.2 |
| 20260905153118 | 83 | 152 | 4.0 | 8.0 | 0.00 | 0.00 | 0.00 | 71 | 1016.1 |
| 20260905152613 | 84 | 149 | 4.0 | 10.0 | 0.00 | 0.00 | 0.00 | 71 | 1016.1 |
| 20260905152108 | 84 | 196 | 2.0 | 4.0 | 0.00 | 0.00 | 0.00 | 73 | 1016.0 |
| 20260905151602 | 83 | 99 | 7.0 | 10.0 | 0.00 | 0.00 | 0.00 | 75 | 1016.0 |
| 20260905151058 | 83 | 136 | 4.0 | 8.0 | 0.00 | 0.00 | 0.00 | 75 | 1015.9 |
| 20260905150553 | 83 | 206 | 5.0 | 8.0 | 0.00 | 0.00 | 0.00 | 74 | 1015.9 |
| 20260905150052 | 83 | 192 | 2.0 | 7.0 | 0.00 | 0.00 | 0.00 | 74 | 1016.4 |
| 20260905145550 | 83 | 202 | 5.0 | 8.0 | 0.00 | 0.00 | 0.00 | 75 | 1016.3 |
| 20260905145049 | 83 | 183 | 3.0 | 7.0 | 0.00 | 0.00 | 0.00 | 76 | 1016.5 |
| 20260905144544 | 82 | 145 | 5.0 | 8.0 | 0.00 | 0.00 | 0.00 | 76 | 1016.4 |
| 20260905144044 | 83 | 155 | 2.0 | 7.0 | 0.00 | 0.00 | 0.00 | 77 | 1016.2 |
| 20260905143544 | 83 | 145 | 5.0 | 6.0 | 0.00 | 0.00 | 0.00 | 76 | 1015.9 |
| 20260905143039 | 81 | 192 | 5.0 | 10.0 | 0.00 | 0.00 | 0.00 | 78 | 1016.1 |
| 20260905142538 | 82 | 114 | 2.0 | 4.0 | 0.00 | 0.00 | 0.00 | 78 | 1016.1 |
| 20260905142033 | 81 | 122 | 4.0 | 8.0 | 0.00 | 0.00 | 0.00 | 80 | 1016.0 |
| 20260905141532 | 81 | 160 | 5.0 | 8.0 | 0.00 | 0.00 | 0.00 | 79 | 1016.1 |
| 20260905141029 | 81 | 185 | 4.0 | 6.0 | 0.00 | 0.00 | 0.00 | 80 | 1016.2 |
| 20260905140529 | 81 | 170 | 2.0 | 10.0 | 0.00 | 0.00 | 0.00 | 82 | 1016.2 |
| 20260905140028 | 80 | 117 | 5.0 | 7.0 | 0.00 | 0.00 | 0.00 | 82 | 1016.1 |
| 20260905135524 | 80 | 192 | 6.0 | 10.0 | 0.00 | 0.00 | 0.00 | 83 | 1016.2 |
| 20260905135020 | 81 | 154 | 3.0 | 8.0 | 0.00 | 0.00 | 0.00 | 84 | 1016.0 |
| 20260905134519 | 80 | 185 | 3.0 | 8.0 | 0.00 | 0.00 | 0.00 | 85 | 1016.1 |
| 20260905134018 | 78 | 141 | 3.0 | 6.0 | 0.00 | 0.00 | 0.00 | 89 | 1016.2 |
| 20260905133514 | 77 | 127 | 5.0 | 7.0 | 0.00 | 0.00 | 0.00 | 92 | 1016.2 |
| 20260905133013 | 76 | 109 | 5.0 | 9.0 | 0.00 | 0.00 | 0.00 | 93 | 1016.0 |
| 20260905132508 | 76 | 103 | 5.0 | 8.0 | 0.00 | 0.00 | 0.00 | 95 | 1016.1 |
| 20260905132008 | 76 | 113 | 0.0 | 0.0 | 0.00 | 0.00 | 0.00 | 95 | 1016.1 |
| 20260905131504 | 76 | 161 | 0.0 | 0.0 | 0.00 | 0.00 | 0.00 | 94 | 1015.7 |
| 20260905130959 | 76 | 158 | 0.0 | 0.0 | 0.00 | 0.00 | 0.00 | 93 | 1015.8 |
| 20260905130458 | 75 | 163 | 0.0 | 0.0 | 0.00 | 0.00 | 0.00 | 97 | 1015.8 |
| 20260905125958 | 75 | 193 | 0.0 | 0.0 | 0.00 | 0.00 | 0.00 | 97 | 1015.7 |
| 20260905125453 | 75 | 162 | 0.0 | 0.0 | 0.00 | 0.00 | 0.00 | 97 | 1015.6 |
| 20260905124948 | 75 | 166 | 0.0 | 0.0 | 0.00 | 0.00 | 0.00 | 97 | 1015.7 |
| 20260905124445 | 75 | 193 | 0.0 | 0.0 | 0.00 | 0.00 | 0.00 | 97 | 1015.5 |
| 20260905123940 | 75 | 190 | 0.0 | 0.0 | 0.00 | 0.00 | 0.00 | 97 | 1015.5 |
| 20260905123437 | 75 | 191 | 0.0 | 0.0 | 0.00 | 0.00 | 0.00 | 97 | 1015.8 |
| 20260905122937 | 74 | 187 | 0.0 | 0.0 | 0.00 | 0.00 | 0.00 | 98 | 1015.6 |
| 20260905122436 | 74 | 170 | 0.0 | 0.0 | 0.00 | 0.00 | 0.00 | 98 | 1015.5 |
| 20260905121932 | 75 | 165 | 0.0 | 0.0 | 0.00 | 0.00 | 0.00 | 98 | 1015.3 |
| 20260905121427 | 75 | 191 | 0.0 | 0.0 | 0.00 | 0.00 | 0.00 | 98 | 1015.6 |
| 20260905120926 | 75 | 194 | 0.0 | 0.0 | 0.00 | 0.00 | 0.00 | 98 | 1015.4 |
| 20260905120421 | 74 | 193 | 0.0 | 0.0 | 0.00 | 0.00 | 0.00 | 98 | 1015.4 |
| 20260905115916 | 74 | 211 | 0.0 | 0.0 | 0.00 | 0.00 | 0.00 | 98 | 1015.5 |
| 20260905115416 | 73 | 206 | 0.0 | 0.0 | 0.00 | 0.00 | 0.00 | 98 | 1015.6 |
| 20260905114911 | 73 | 205 | 0.0 | 0.0 | 0.00 | 0.00 | 0.00 | 98 | 1015.5 |
| 20260905114410 | 73 | 204 | 0.0 | 0.0 | 0.00 | 0.00 | 0.00 | 98 | 1015.4 |
| 20260905113909 | 73 | 190 | 0.0 | 0.0 | 0.00 | 0.00 | 0.00 | 98 | 1015.1 |
| 20260905113405 | 73 | 179 | 0.0 | 0.0 | 0.00 | 0.00 | 0.00 | 98 | 1015.3 |
| 20260905112900 | 73 | 190 | 0.0 | 0.0 | 0.00 | 0.00 | 0.00 | 98 | 1015.3 |
| 20260905112355 | 73 | 207 | 0.0 | 0.0 | 0.00 | 0.00 | 0.00 | 98 | 1015.4 |
| 20260905111845 | 73 | 214 | 0.0 | 0.0 | 0.00 | 0.00 | 0.00 | 98 | 1015.3 |
| 20260905111345 | 73 | 208 | 0.0 | 0.0 | 0.00 | 0.00 | 0.00 | 98 | 1015.3 |
| 20260905110844 | 73 | 203 | 0.0 | 0.0 | 0.00 | 0.00 | 0.00 | 98 | 1015.2 |
| 20260905110344 | 73 | 212 | 0.0 | 0.0 | 0.00 | 0.00 | 0.00 | 98 | 1015.2 |
| 20260905105840 | 73 | 20 | 0.0 | 0.0 | 0.00 | 0.00 | 0.00 | 98 | 1015.2 |
| 20260905105339 | 73 | 48 | 0.0 | 0.0 | 0.00 | 0.00 | 0.00 | 98 | 1015.2 |
| 20260905104838 | 73 | 180 | 0.0 | 0.0 | 0.00 | 0.00 | 0.00 | 98 | 1015.3 |
| 20260905104335 | 73 | 194 | 0.0 | 0.0 | 0.00 | 0.00 | 0.00 | 98 | 1015.5 |
| 20260905103834 | 73 | 206 | 0.0 | 0.0 | 0.00 | 0.00 | 0.00 | 98 | 1015.2 |
| 20260905103330 | 73 | 202 | 0.0 | 0.0 | 0.00 | 0.00 | 0.00 | 98 | 1015.3 |
| 20260905102826 | 73 | 206 | 0.0 | 0.0 | 0.00 | 0.00 | 0.00 | 98 | 1015.2 |
| 20260905102323 | 73 | 198 | 0.0 | 0.0 | 0.00 | 0.00 | 0.00 | 98 | 1015.1 |
| 20260905101822 | 73 | 186 | 0.0 | 0.0 | 0.00 | 0.00 | 0.00 | 98 | 1015.3 |